This demonstration page uses our WeatherBlox Daily Observations layout. Learn more.

Left ArrowRight Arrow

39.12711, -84.51439

Hourly Observations for August 5, 2016

Temp ( °F °C ) Dew Point ( °F °C ) Humidity (%) Winds ( mph kmh ) Pressure ( in mb ) Visibility ( mi km ) Precip ( " mm )
12:53 am 00:53 Clear 74 23.3 73 22.8 97 97 SW 3 6 29.96 1015 9 14 N/A
1:53 am 01:53 Clear 74 23.3 72 22.2 94 94 S 3 6 29.94 1014 9 14 N/A
2:53 am 02:53 Clear with Mist and Fog 71 21.7 71 21.7 100 100 N N/A 29.93 1014 5 8 N/A
3:53 am 03:53 Clear 72 22.2 72 22.2 100 100 SE 3 6 29.92 1013 7 11 N/A
4:53 am 04:53 Clear with Mist and Fog 72 22.2 72 22.2 100 100 N N/A 29.91 1013 6 10 N/A
5:53 am 05:53 Clear with Mist and Fog 70 21.1 70 21.1 100 100 SE 5 7 29.92 1013 4 6 N/A
6:53 am 06:53 Sunny with Mist and Fog 70 21.1 70 21.1 100 100 N N/A 29.93 1014 4 6 N/A
7:53 am 07:53 Sunny with Mist and Fog 71 21.7 71 21.7 100 100 SSW 5 7 29.94 1014 4 6 N/A
8:14 am 08:14 Partly Cloudy with Mist and Fog 73 22.8 73 22.8 100 100 S 5 7 29.91 1013 5 8 N/A
8:24 am 08:24 Mostly Cloudy with Mist and Fog 73 23 73 23 100 100 S 6 9 29.91 1013 4 6 N/A
8:53 am 08:53 Cloudy with Mist and Fog 73 23 73 23 100 100 SSW 6 9 29.94 1014 5 8 N/A
9:53 am 09:53 Mostly Cloudy 75 24 73 23 94 94 SSW 8 13 29.91 1013 7 11 N/A
10:14 am 10:14 Mostly Sunny 77 25 74 23.3 90 90 SSE 6 9 29.91 1013 8 13 N/A
10:53 am 10:53 Sunny 79 26 73 23 84 84 N N/A 29.94 1014 9 14 N/A
11:53 am 11:53 Partly Cloudy 83 28.3 75 23.9 77 77 SE 5 7 29.94 1014 10 16 N/A
12:53 pm 12:53 Mostly Cloudy 84 28.9 74 23.3 72 72 SSE 6 9 29.93 1013 10 16 N/A
1:53 pm 13:53 Mostly Cloudy 87 30.6 74 23.3 65 65 SSE 5 7 29.91 1013 10 16 N/A
2:53 pm 14:53 Partly Cloudy 89 31.7 72 22.2 57 57 N N/A 29.89 1012 10 16 N/A
3:53 pm 15:53 Mostly Sunny 89 31.7 74 23.3 61 61 S 7 11 29.87 1012 10 16 N/A
4:53 pm 16:53 Mostly Cloudy 88 31.1 75 23.9 66 66 S 7 11 29.86 1011 10 16 N/A
5:53 pm 17:53 Mostly Sunny 86 30 74 23.3 67 67 WSW 10 17 29.86 1011 10 16 N/A
6:53 pm 18:53 Sunny 86 30 76 24.4 72 72 SSW 8 13 29.85 1011 9 14 N/A
7:53 pm 19:53 Sunny 84 28.9 74 23.3 72 72 WSW 8 13 29.85 1011 10 16 N/A
8:53 pm 20:53 Clear 80 26.7 75 23.9 85 85 WSW 6 9 29.86 1011 10 16 N/A
9:53 pm 21:53 Clear 79 26.1 76 24.4 90 90 WSW 7 11 29.88 1012 10 16 N/A
10:53 pm 22:53 Clear 77 25 75 23.9 94 94 SSW 5 7 29.88 1012 8 13 N/A
11:53 pm 23:53 Clear 77 25 76 24.4 96 96 SW 5 7 29.88 1012 7 11 N/A

Powered by AerisWeather